TimeMDT,TemperatureF,Dew PointF,Humidity,Sea Level PressureIn,VisibilityMPH,Wind Direction,Wind SpeedMPH,Gust SpeedMPH,PrecipitationIn,Events,Conditions,WindDirDegrees,DateUTC
12:56 AM,19.0,15.1,85,29.92,10.0,South,10.4,-,N/A,,Overcast,170,2013-03-22 06:56:00
1:22 AM,19.4,15.8,86,29.87,10.0,South,9.2,-,N/A,,Overcast,180,2013-03-22 07:22:00
1:37 AM,19.4,15.8,86,29.87,2.5,South,9.2,-,0.00,Snow,Light Snow,170,2013-03-22 07:37:00
1:56 AM,19.0,16.2,89,29.91,3.0,South,10.4,-,0.00,,Mostly Cloudy,170,2013-03-22 07:56:00
2:08 AM,19.4,15.8,86,29.86,3.0,South,10.4,-,0.00,,Mostly Cloudy,180,2013-03-22 08:08:00
2:11 AM,19.4,15.8,86,29.86,2.5,South,10.4,-,0.00,,Overcast,180,2013-03-22 08:11:00
2:28 AM,19.4,15.8,86,29.85,3.0,South,10.4,-,0.00,Snow,Light Snow,180,2013-03-22 08:28:00
2:38 AM,19.4,15.8,86,29.85,2.5,South,9.2,-,0.00,Snow,Light Snow,180,2013-03-22 08:38:00
2:48 AM,19.4,15.8,86,29.85,3.0,South,8.1,-,0.00,Snow,Light Snow,170,2013-03-22 08:48:00
2:56 AM,19.0,16.2,89,29.90,3.0,South,8.1,-,0.00,Snow,Light Snow,170,2013-03-22 08:56:00
3:26 AM,19.4,15.8,86,29.84,1.8,South,9.2,-,0.00,Snow,Light Snow,170,2013-03-22 09:26:00
3:30 AM,19.4,15.8,86,29.84,1.0,South,9.2,-,0.00,Snow,Light Snow,180,2013-03-22 09:30:00
3:34 AM,19.4,15.8,86,29.84,0.8,South,9.2,-,0.00,Snow,Light Snow,180,2013-03-22 09:34:00
3:41 AM,19.4,15.8,86,29.83,1.2,South,8.1,-,0.00,Snow,Light Snow,180,2013-03-22 09:41:00
3:44 AM,17.6,15.8,93,29.83,2.0,South,8.1,-,0.00,Snow,Light Snow,170,2013-03-22 09:44:00
3:46 AM,17.6,15.8,93,29.83,3.0,South,8.1,-,0.00,Snow,Light Snow,170,2013-03-22 09:46:00
3:56 AM,18.1,15.1,88,29.89,6.0,South,8.1,-,0.00,Snow,Light Snow,170,2013-03-22 09:56:00
4:56 AM,16.2,13.1,88,29.88,10.0,South,8.1,-,0.00,,Mostly Cloudy,170,2013-03-22 10:56:00
5:56 AM,14.0,11.1,88,29.91,10.0,SSE,3.5,-,N/A,,Mostly Cloudy,150,2013-03-22 11:56:00
6:42 AM,12.2,8.6,85,29.82,10.0,SE,4.6,-,N/A,,Mostly Cloudy,140,2013-03-22 12:42:00
6:56 AM,13.1,9.1,84,29.91,10.0,SE,4.6,-,N/A,,Partly Cloudy,140,2013-03-22 12:56:00
7:24 AM,12.2,8.6,85,29.82,10.0,ESE,3.5,-,N/A,,Mostly Cloudy,120,2013-03-22 13:24:00
7:56 AM,14.0,10.0,84,29.91,10.0,South,5.8,-,N/A,,Overcast,180,2013-03-22 13:56:00
8:34 AM,12.2,10.4,92,29.83,10.0,ENE,3.5,-,N/A,,Mostly Cloudy,70,2013-03-22 14:34:00
8:41 AM,14.0,10.4,86,29.83,10.0,ESE,3.5,-,N/A,,Overcast,110,2013-03-22 14:41:00
8:56 AM,14.0,11.1,88,29.92,10.0,SE,4.6,-,0.00,Snow,Light Snow,130,2013-03-22 14:56:00
9:05 AM,14.0,10.4,86,29.83,10.0,SE,5.8,-,0.00,Snow,Light Snow,140,2013-03-22 15:05:00
9:30 AM,15.8,10.4,79,29.83,10.0,SE,4.6,-,0.00,,Mostly Cloudy,130,2013-03-22 15:30:00
9:56 AM,17.1,12.0,81,29.92,10.0,South,3.5,-,0.00,,Scattered Clouds,190,2013-03-22 15:56:00
10:56 AM,20.1,13.1,74,29.91,10.0,Calm,Calm,-,N/A,,Partly Cloudy,0,2013-03-22 16:56:00
11:56 AM,21.0,13.1,71,29.90,10.0,WNW,4.6,-,N/A,,Partly Cloudy,290,2013-03-22 17:56:00
12:56 PM,21.0,14.0,74,29.91,10.0,NW,6.9,-,N/A,,Clear,320,2013-03-22 18:56:00
1:56 PM,23.0,13.1,66,29.90,10.0,North,4.6,-,N/A,,Clear,360,2013-03-22 19:56:00
2:56 PM,23.0,13.1,66,29.89,10.0,NNW,3.5,-,N/A,,Clear,330,2013-03-22 20:56:00
3:56 PM,23.0,12.0,63,29.91,10.0,North,10.4,-,N/A,,Clear,350,2013-03-22 21:56:00
4:17 PM,21.2,15.8,80,29.84,4.0,NE,18.4,-,0.00,Snow,Light Snow,40,2013-03-22 22:17:00
4:20 PM,21.2,15.8,80,29.84,1.8,NE,17.3,-,0.00,Snow,Light Snow,50,2013-03-22 22:20:00
4:22 PM,21.2,15.8,80,29.85,0.8,NE,18.4,-,0.00,Snow,Light Snow,50,2013-03-22 22:22:00
4:30 PM,19.4,15.8,86,29.85,0.5,NE,15.0,-,0.00,Snow,Snow,50,2013-03-22 22:30:00
4:39 PM,21.2,15.8,80,29.85,0.8,ENE,11.5,-,0.00,Snow,Light Snow,60,2013-03-22 22:39:00
4:42 PM,21.2,14.0,74,29.85,1.2,ENE,11.5,-,0.00,Snow,Light Snow,70,2013-03-22 22:42:00
4:45 PM,21.2,14.0,74,29.84,2.5,ENE,10.4,-,0.00,Snow,Light Snow,70,2013-03-22 22:45:00
4:47 PM,21.2,14.0,74,29.84,4.0,ENE,9.2,-,0.00,Snow,Light Snow,70,2013-03-22 22:47:00
4:56 PM,21.0,13.1,71,29.92,10.0,East,9.2,-,0.00,Snow,Light Snow,90,2013-03-22 22:56:00
5:56 PM,20.1,11.1,68,29.95,10.0,NW,6.9,-,0.00,,Clear,310,2013-03-22 23:56:00
6:56 PM,20.1,14.0,77,29.98,6.0,North,13.8,-,0.00,Snow,Light Snow,360,2013-03-23 00:56:00
7:00 PM,19.4,15.8,86,29.88,2.5,North,11.5,-,0.00,Snow,Light Snow,350,2013-03-23 01:00:00
7:03 PM,19.4,15.8,86,29.88,1.8,North,11.5,-,0.00,Snow,Light Snow,350,2013-03-23 01:03:00
7:08 PM,19.4,15.8,86,29.88,1.2,NNW,10.4,-,0.00,Snow,Light Snow,340,2013-03-23 01:08:00
7:12 PM,19.4,15.8,86,29.88,1.0,NNW,9.2,-,0.00,Snow,Light Snow,340,2013-03-23 01:12:00
7:20 PM,19.4,15.8,86,29.88,1.5,North,6.9,-,0.00,Snow,Light Snow,360,2013-03-23 01:20:00
7:24 PM,19.4,15.8,86,29.88,3.0,NNE,5.8,-,0.00,Snow,Light Snow,20,2013-03-23 01:24:00
7:32 PM,19.4,12.2,74,29.88,10.0,NE,5.8,-,0.00,Snow,Light Snow,50,2013-03-23 01:32:00
7:56 PM,19.0,13.1,78,29.99,10.0,WNW,3.5,-,0.00,,Partly Cloudy,300,2013-03-23 01:56:00
8:56 PM,10.0,7.2,88,30.06,10.0,East,3.5,-,N/A,,Clear,90,2013-03-23 02:56:00
10:56 PM,9.1,5.0,83,30.06,10.0,ESE,5.8,-,0.00,Snow,Light Snow,120,2013-03-23 04:56:00
11:56 PM,3.0,-1.8,80,30.10,10.0,ESE,4.6,-,0.00,,Clear,120,2013-03-23 05:56:00